Torna al catalogo

FENGYUN 1C DEB

AttivoSSO
NORAD 36733·DEBRIS·🇨🇳 China

Lanciato May 10, 1999 da Taiyuan Satellite Launch Center

Loading…

Prossimi Passaggi (prossime 24 ore)

TLE

In scadenzaSource: Space-Track

Epoca: Sep 8, 2026, 11:03 UTC

1 36733U 99025EBF 26251.46054377  .00002167  00000-0  11571-2 0  9992
2 36733  99.3255 251.9695 0126165  96.8154 264.7388 14.10358713691386

Traccia FENGYUN 1C DEB in tempo reale con AllMySat

Download on the App Store